Terminal Aerodrome Forecast
Issued by NWS Cleveland, OH

Home | Current Version | Previous Version | Graphics & Text | Print | Product List | Glossary On
Versions: 1 2 3 4 5 6 7 8 9 10 11 12 13
000
FTUS41 KCLE 271120
TAFMFD
TAF
KMFD 271120Z 2712/2812 26004KT P6SM SKC
     FM271800 29010KT P6SM BKN050
     FM280100 25003KT P6SM SCT050=

USA.gov is the U.S. government's official web portal to all federal, state and local government web resources and services.